sat.trackr.live / text

‹ back to catalog

STARLINK-35202

NORAD 65647 · 2025-210AB

PAYLOAD ACTIVE UNKNOWN

§ Identity

Operator
Country
US
Launch date
2025-09-18
Launch site
AFETR
Launch vehicle
Mass (kg)
RCS (m²)

Purposes: comms

External: N2YO · Heavens-Above · Gunter

§ Orbital elements

Epoch: 2026-09-20T00:57:40.992192Z

Period
93.85 min
Inclination
53.1568°
Eccentricity
0.0001347
Mean motion
15.34403583 rev/d
Perigee alt
461.8 km
Apogee alt
463.6 km
Semi-major
6,840.8 km
B*
4.9019e-4
RAAN
118.1885°
Arg perigee
89.9254°
Mean anomaly
270.1903°
Rev number
5,757

§ Raw data

STARLINK-352021 65647U 25210AB  26263.04005778  .00016223  00000+0  49019-3 0  99972 65647  53.1568 118.1885 0001347  89.9254 270.1903 15.34403583 57574

JSON: /api/v1/satellites/65647 · /tle

For live sub-satellite position, see the globe view (requires WebGL).

§ Visibility from observer

Set your observer location to see the next 7 days of passes ≥ 10°. The values pass through the URL so the page stays shareable.

No JS? Fill the form by hand. The geolocation button needs JavaScript.